Weather in Bulanikha

Russia / Altai Krai     52°48′06″N   84°55′50″E
temp.,
°C
wind,
m/s
gust,
m/s
humid.,
%
clouds,
%
prec.,
mm/h
press.,
hPa
HPBL,
m
13 april, tue
tue1301:000wsw249998 0.0 1030117
04:000wsw359799 0.0 1029174
07:00−4wsw2399100 0.0 102966
10:000w3699100 0.5 1029264
13:000wnw36100100 3.3 1030280
16:00+1nw37100100 0.0 1032284
19:00+1nw259710 0.0 1034112
22:00−4w229771 0.0 103614
14 april, wed
wed1401:00−4w229964 0.0 103656
04:00−1w369632 0.0 1035203
07:00−4w359974 0.0 1037124
10:00−1wsw359798 0.0 1037380
13:00+1wsw2610094 0.0 1034293
16:00+2wsw3799100 0.0 1032156
19:00+2sw4992100 0.0 1030199
22:00+1sw31192100 0.0 1030230
15 april, thu
thu1501:000wsw389017 0.0 1029142
04:00−1wsw2692100 0.0 102889
07:00−1sw119673 0.0 102831
10:00+2ssw129960 0.0 102876
13:00+4sse119582 0.0 1027126
16:00+5ene129699 0.0 102672
19:00+3ese229986 0.0 102525
22:00+2sse2297100 0.0 102518
16 april, fri
fri1601:00+2sse229649 0.0 102411
04:00+1sse22948 0.0 102210
07:00+1sse22935 0.0 102217
10:00+6sse23865 0.0 1021116
13:00+10s22714 0.0 1019384
16:00+12sse12635 0.0 1017697
19:00+10sse33731 0.0 101544
22:00+7sse33825 0.0 101517
17 april, sat
sat1701:00+5sse228132 0.0 101312
04:00+4sse2280100 0.0 101113
07:00+5se3385100 0.0 100928
10:00+7ese2375100 0.0 1009144
13:00+11e2171100 0.0 1007333
16:00+13nnw2365100 0.0 1006485
19:00+11ese3479100 0.0 100594
22:00+8sse228675 0.0 100613